This is the latest recevied weather packets stored in our database for station/object SQ9NFI-4. If no packets are shown the sender has not sent any weather packets the latest 1 day(s).
| Time | Temp. | Humidity | Pressure | Rain* | Wind** | Luminosity | Snow |
|---|---|---|---|---|---|---|---|
| 1778060378 | 23.33° C | 46% | 1008.1 hPa | 0 mm | - | 685 W/m² | - |
| 1778060078 | 23.33° C | 46% | 1008.1 hPa | 0 mm | - | 683 W/m² | - |
| 1778059778 | 23.33° C | 45% | 1008.1 hPa | 0 mm | - | 688 W/m² | - |
| 1778059478 | 23.89° C | 46% | 1008.1 hPa | 0 mm | - | 674 W/m² | - |
| 1778059178 | 23.89° C | 46% | 1008.1 hPa | 0 mm | - | 680 W/m² | - |
| 1778058878 | 23.33° C | 46% | 1008.1 hPa | 0 mm | - | 648 W/m² | - |
| 1778058578 | 23.33° C | 47% | 1008.1 hPa | 0 mm | - | 643 W/m² | - |
| 1778058278 | 23.33° C | 46% | 1008.1 hPa | 0 mm | - | 609 W/m² | - |
| 1778057978 | 23.33° C | 46% | 1008.1 hPa | 0 mm | - | 657 W/m² | - |
| 1778057678 | 23.33° C | 46% | 1008.1 hPa | 0 mm | - | 631 W/m² | - |
| 1778057378 | 23.33° C | 49% | 1008.1 hPa | 0 mm | - | 617 W/m² | - |
| 1778057078 | 22.78° C | 47% | 1008.1 hPa | 0 mm | - | 626 W/m² | - |
| 1778056778 | 22.78° C | 49% | 1008.1 hPa | 0 mm | - | 609 W/m² | - |
| 1778056478 | 23.33° C | 47% | 1008.1 hPa | 0 mm | - | 589 W/m² | - |
| 1778056178 | 22.78° C | 48% | 1008.1 hPa | 0 mm | - | 597 W/m² | - |
| 1778055878 | 22.78° C | 48% | 1007.8 hPa | 0 mm | - | 580 W/m² | - |
| 1778055578 | 22.22° C | 47% | 1007.8 hPa | 0 mm | - | 583 W/m² | - |
| 1778055278 | 21.67° C | 50% | 1007.8 hPa | 0 mm | - | 572 W/m² | - |
| 1778054978 | 21.67° C | 50% | 1007.8 hPa | 0 mm | - | 574 W/m² | - |
| 1778054678 | 21.67° C | 51% | 1007.8 hPa | 0 mm | - | 550 W/m² | - |
| 1778054378 | 21.67° C | 50% | 1007.8 hPa | 0 mm | - | 550 W/m² | - |
| 1778054078 | 21.11° C | 52% | 1007.8 hPa | 0 mm | - | 518 W/m² | - |
| 1778053778 | 21.11° C | 52% | 1007.8 hPa | 0 mm | - | 512 W/m² | - |
| 1778053178 | 20.56° C | 52% | 1007.8 hPa | 0 mm | - | 501 W/m² | - |
| 1778052578 | 20.56° C | 50% | 1007.5 hPa | 0 mm | - | 462 W/m² | - |
* Rain latest hour (hover to see other rain measurements)
** Current wind speed in m/s (hover to see current wind gust speed)